Regional Weather Roundup
Issued by NWS

Home | Current Version | Previous Version | Text Only | Print | Product List | Glossary Off
Versions: 1 2 3 4 5 6 7 8 9 10 11 12 13 14 15 16 17 18 19 20 21 22 23 24 25 26 27

000
ASUS45 KBOI 241610
RWRID

IDAHO REGIONAL WEATHER ROUNDUP
NATIONAL WEATHER SERVICE BOISE ID
1000 AM MDT SUN JUL 24 2016

NOTE: "FAIR" INDICATES FEW OR NO CLOUDS BELOW 12000 FEET
WITH NO SIGNIFICANT WEATHER AND/OR OBSTRUCTIONS TO VISIBILITY

IDZ012-014-241700-
SOUTHWEST IDAHO


CITY           SKY/WX    TMP DP  RH WIND       PRES   REMARKS
BOISE          SUNNY     69  42  37 VRB5      30.10R
CALDWELL       NOT AVBL
MOUNTAIN HOME  SUNNY     72  38  28 NE7       30.11R
$$

IDZ016-017-241700-
SOUTHCENTRAL IDAHO


CITY           SKY/WX    TMP DP  RH WIND       PRES   REMARKS
BURLEY         SUNNY     69  38  32 CALM      30.17R
JEROME         SUNNY     67  34  29 SW6       30.17R
TWIN FALLS     SUNNY     74  36  25 NW7       30.16S
$$

IDZ019>023-241700-
SOUTHEAST IDAHO


CITY           SKY/WX    TMP DP  RH WIND       PRES   REMARKS
IDAHO FALLS    SUNNY     61  37  41 VRB6      30.21S
POCATELLO      SUNNY     72  31  22 VRB6      30.20R
REXBURG        SUNNY     65  40  39 NW3       30.21S
$$

IDZ006-010-011-018-031-032-241700-
CENTRAL IDAHO MOUNTAINS


CITY           SKY/WX    TMP DP  RH WIND       PRES   REMARKS
MCCALL         SUNNY     63  44  50 CALM      30.19F
HAILEY         SUNNY     66  36  32 NW6       30.23S
STANLEY          N/A     58  34  40 N5        30.30F
SALMON         SUNNY     63  41  45 CALM      30.19F
CHALLIS        SUNNY     66  38  35 CALM      30.23S
$$

IDZ002-004-006-007-026-241700-
NORTHERN IDAHO


CITY           SKY/WX    TMP DP  RH WIND       PRES   REMARKS
LEWISTON       SUNNY     69  48  47 VRB3      30.11S
LOWELL           N/A     63  49  60 CALM      30.15F
COEUR D`ALENE  SUNNY     66  52  59 CALM      30.12S
MULLAN PASS    SUNNY     57  43  59 CALM      30.26S
$$




USA.gov is the U.S. government's official web portal to all federal, state and local government web resources and services.